Kaneohe MCBH, HI

8:09 AM HST on June 27, 2017 (GMT -1000)
Kaneohe Bay Marine Corps Air Facility

Weather History for PHNG - April, 2013

Change the Weather History Date:

Monday, April 22, 2013

  Actual Average Record
Temperature  
Mean Temperature 76 °F -  
Max Temperature 80 °F 76 °F 82 °F (1997)
Min Temperature 73 °F 68 °F 66 °F (2008)
Cooling Degree Days 12    
Growing Degree Days 26 (Base 50)    
Moisture  
Dew Point 71 °F    
Average Humidity 85    
Maximum Humidity 99    
Minimum Humidity 61    
Precipitation  
Precipitation 0.21 in - - ()
Sea Level Pressure  
Sea Level Pressure 29.99 in    
Wind  
Wind Speed 3 mph (SSW)    
Max Wind Speed 12 mph    
Max Gust Speed 18 mph    
Visibility 10 miles    
Events Rain    
Averages and records for this station are not official NWS values.
T = Trace of Precipitation, MM = Missing Value Source: NWS Daily Summary

Daily Weather History Graph

Daily Weather History Graph

Search for Another Location

Airport or City:

Trip Planner

Search our weather history database for the weather conditions in past years. The results will help you decide how hot, cold, wet, or windy it might be!

Date:

Astronomy

Apr. 22, 2013 Rise Set
Actual Time 6:06 AM HST 6:53 PM HST
Civil Twilight 5:43 AM HST 7:16 PM HST
Nautical Twilight 5:16 AM HST 7:43 PM HST
Astronomical Twilight 4:48 AM HST 8:10 PM HST
Moon 4:13 PM HST (4/22) 3:43 AM HST (4/22)
Length of Visible Light 13h 33m
Length of Day
12h 47m
Waxing Gibbous, 89% of the Moon is Illuminated
Apr 22
Waxing Gibbous
Apr 25
Full
May 2
Last Quarter
May 9
New
May 17
First Quarter

Hourly Weather History & Observations

Time (HST) Temp. Heat Index Dew Point Humidity Pressure Visibility Wind Dir Wind Speed Gust Speed Precip Events Conditions
12:57 AM 75.2 °F - 69.1 °F 81% 30.00 in 10.0 mi Calm Calm - 0.09 in   Mostly Cloudy
1:57 AM 74.1 °F - 73.9 °F 99% 29.98 in 10.0 mi Calm Calm - 0.00 in Rain Light Rain
2:57 AM 73.4 °F - 71.6 °F 94% 29.96 in 10.0 mi Calm Calm - 0.01 in   Overcast
3:57 AM 73.4 °F - 68.0 °F 83% 29.96 in 10.0 mi Calm Calm - 0.02 in Rain Rain
4:57 AM 74.1 °F - 73.9 °F 99% 29.97 in 10.0 mi Calm Calm - 0.01 in   Mostly Cloudy
5:57 AM 73.4 °F - 71.1 °F 92% 29.99 in 10.0 mi Calm Calm - 0.02 in Rain Light Rain
7:57 AM 75.2 °F - 75.0 °F 99% 30.02 in 10.0 mi Calm Calm - N/A   Scattered Clouds
8:57 AM 75.2 °F - 75.0 °F 99% 30.03 in 10.0 mi SSW 3.5 mph - 0.00 in   Mostly Cloudy
9:57 AM 77.0 °F - 70.0 °F 79% 30.04 in 10.0 mi SW 5.8 mph - N/A   Overcast
10:57 AM 77.0 °F - 68.0 °F 74% 30.03 in 10.0 mi South 11.5 mph - N/A   Mostly Cloudy
11:57 AM 77.0 °F - 66.9 °F 71% 30.01 in 10.0 mi SW 11.5 mph - N/A   Mostly Cloudy
12:57 PM 78.8 °F - 66.0 °F 65% 29.99 in 10.0 mi SSW 10.4 mph - 0.00 in   Mostly Cloudy
1:57 PM 80.6 °F 82.7 °F 66.0 °F 61% 29.97 in 10.0 mi SSW 5.8 mph 18.4 mph 0.04 in Rain Light Rain
2:57 PM 80.6 °F 83.9 °F 70.0 °F 70% 29.96 in 10.0 mi SSW 11.5 mph - 0.02 in Rain Light Rain
3:57 PM 78.8 °F - 68.0 °F 69% 29.96 in 10.0 mi North 9.2 mph - 0.00 in   Mostly Cloudy
4:57 PM 77.0 °F - 73.9 °F 90% 29.96 in 10.0 mi North 9.2 mph - N/A   Mostly Cloudy
5:44 PM 77.0 °F - 73.4 °F 89% 29.98 in 6.2 mi North 6.9 mph - N/A   Mostly Cloudy
5:57 PM 77.0 °F - 73.0 °F 88% 29.96 in 10.0 mi NNE 6.9 mph - N/A   Mostly Cloudy
6:57 PM 75.2 °F - 73.0 °F 93% 29.98 in 10.0 mi NNE 3.5 mph - N/A   Mostly Cloudy
7:57 PM 75.2 °F - 73.0 °F 93% 29.99 in 10.0 mi Calm Calm - N/A   Mostly Cloudy
8:57 PM 75.2 °F - 72.0 °F 90% 30.01 in 10.0 mi Calm Calm - N/A   Mostly Cloudy
9:57 PM 75.2 °F - 71.1 °F 87% 30.01 in 10.0 mi NNE 5.8 mph - N/A   Mostly Cloudy
10:57 PM 75.2 °F - 75.0 °F 99% 30.02 in 10.0 mi SSE 3.5 mph - N/A   Scattered Clouds
11:57 PM 73.4 °F - 69.1 °F 86% 30.01 in 10.0 mi South 4.6 mph - N/A   Scattered Clouds